TimeMST,TemperatureF,Dew PointF,Humidity,Sea Level PressureIn,VisibilityMPH,Wind Direction,Wind SpeedMPH,Gust SpeedMPH,PrecipitationIn,Events,Conditions,WindDirDegrees,DateUTC
12:15 AM,46.4,37.4,71,29.84,10.0,South,12.7,19.6,N/A,,Clear,190,2012-11-10 07:15:00
12:35 AM,46.4,37.4,71,29.83,10.0,South,10.4,-,N/A,,Clear,190,2012-11-10 07:35:00
12:55 AM,46.4,37.4,71,29.82,10.0,South,11.5,-,N/A,,Partly Cloudy,190,2012-11-10 07:55:00
1:15 AM,44.6,37.4,76,29.82,10.0,SSW,9.2,-,N/A,,Partly Cloudy,210,2012-11-10 08:15:00
1:35 AM,44.6,37.4,76,29.81,10.0,South,9.2,-,N/A,,Mostly Cloudy,190,2012-11-10 08:35:00
1:55 AM,46.4,37.4,71,29.80,10.0,SSW,11.5,-,N/A,,Mostly Cloudy,200,2012-11-10 08:55:00
2:15 AM,46.4,37.4,71,29.79,10.0,South,10.4,-,N/A,,Mostly Cloudy,190,2012-11-10 09:15:00
2:35 AM,44.6,37.4,76,29.79,10.0,SSW,8.1,-,N/A,,Scattered Clouds,210,2012-11-10 09:35:00
2:55 AM,44.6,39.2,81,29.78,10.0,South,10.4,-,N/A,,Mostly Cloudy,190,2012-11-10 09:55:00
3:15 AM,44.6,37.4,76,29.77,10.0,South,10.4,-,N/A,,Partly Cloudy,190,2012-11-10 10:15:00
3:35 AM,42.8,35.6,76,29.76,10.0,South,11.5,-,N/A,,Clear,190,2012-11-10 10:35:00
3:55 AM,42.8,35.6,76,29.76,10.0,South,12.7,-,N/A,,Clear,190,2012-11-10 10:55:00
4:15 AM,41.0,35.6,81,29.76,10.0,SSW,11.5,-,N/A,,Clear,200,2012-11-10 11:15:00
5:50 AM,37.4,32.0,81,29.74,10.0,SSW,9.2,-,N/A,,Partly Cloudy,200,2012-11-10 12:50:00
6:50 AM,37.4,32.0,81,29.74,10.0,South,12.7,-,N/A,,Scattered Clouds,190,2012-11-10 13:50:00
7:50 AM,48.2,32.0,54,29.76,10.0,SSW,18.4,29.9,N/A,,Scattered Clouds,200,2012-11-10 14:50:00
8:50 AM,44.6,32.0,61,29.79,10.0,WSW,25.3,-,N/A,,Mostly Cloudy,250,2012-11-10 15:50:00
9:50 AM,44.6,30.2,57,29.82,10.0,WSW,21.9,34.5,N/A,,Mostly Cloudy,240,2012-11-10 16:50:00
10:50 AM,46.4,28.4,50,29.82,10.0,WSW,28.8,-,N/A,,Scattered Clouds,240,2012-11-10 17:50:00
11:50 AM,46.4,24.8,43,29.84,10.0,West,28.8,-,N/A,,Mostly Cloudy,260,2012-11-10 18:50:00
12:50 PM,44.6,19.4,37,29.83,10.0,West,34.5,-,N/A,,Scattered Clouds,260,2012-11-10 19:50:00
1:50 PM,42.8,17.6,36,29.81,10.0,West,32.2,39.1,N/A,,Scattered Clouds,260,2012-11-10 20:50:00
2:50 PM,42.8,15.8,34,29.81,10.0,West,31.1,38.0,N/A,,Scattered Clouds,260,2012-11-10 21:50:00
3:50 PM,42.8,12.2,29,29.82,10.0,WSW,32.2,-,N/A,,Scattered Clouds,250,2012-11-10 22:50:00
4:50 PM,37.4,14.0,38,29.84,10.0,WNW,17.3,-,N/A,,Scattered Clouds,290,2012-11-10 23:50:00
5:50 PM,32.0,15.8,51,29.86,10.0,NW,17.3,-,N/A,,Scattered Clouds,310,2012-11-11 00:50:00
9:15 PM,30.2,17.6,60,29.90,10.0,West,10.4,-,N/A,,Partly Cloudy,280,2012-11-11 04:15:00
9:35 PM,30.2,17.6,60,29.91,8.0,WNW,9.2,-,N/A,,Clear,300,2012-11-11 04:35:00
9:55 PM,26.6,15.8,64,29.91,10.0,West,11.5,-,N/A,,Clear,270,2012-11-11 04:55:00
10:15 PM,26.6,15.8,64,29.90,10.0,West,11.5,-,N/A,,Clear,260,2012-11-11 05:15:00
10:35 PM,28.4,19.4,69,29.90,10.0,WNW,21.9,29.9,N/A,,Partly Cloudy,290,2012-11-11 05:35:00
10:55 PM,28.4,19.4,69,29.90,10.0,WNW,15.0,-,N/A,,Partly Cloudy,300,2012-11-11 05:55:00
11:35 PM,26.6,19.4,74,29.91,10.0,West,12.7,-,N/A,,Scattered Clouds,280,2012-11-11 06:35:00
11:55 PM,26.6,19.4,74,29.90,10.0,West,13.8,-,N/A,,Scattered Clouds,270,2012-11-11 06:55:00